Location: Unspecified
(0.0000°N, 0.0000°E)
Time: 11:45:15
(UTC+00:00)

A-11 Canister half - Pass Details

Date: 28 November 2019
Orbit: 1515 x 1685 km, 47.2° (Epoch: 13 December)

Event Time Altitude Azimuth Distance (km) Brightness Sun altitude
Rises 12:17:54 0° 222° (SW) 4,687 11.8 67.5°
Reaches altitude 10° 12:20:54 10° 223° (SW) 3,719 11.5 67.2°
Maximum altitude 12:30:20 81° 309° (NW) 1,598 10.5 66.3°
Drops below altitude 10° 12:40:07 10° 36° (NE) 3,841 11.0 65.2°
Sets 12:43:17 0° 37° (NE) 4,848 11.4 64.8°
